Location: Unspecified
(0.0000°N, 0.0000°E)
Time: 22:19:00
(UTC+00:00)

N. Korean satellite - Pass Details

Date: 22 September 2017
Orbit: 460 x 514 km, 97.2° (Epoch: 22 November)

Event Time Altitude Azimuth Distance (km) Brightness Sun altitude
Rises 19:12:02 0° 197° (SSW) 2,619 10.5 -19.9°
Reaches altitude 10° 19:14:40 10° 217° (SW) 1,736 9.8 -20.5°
Maximum altitude 19:17:10 17° 259° (W) 1,346 9.7 -21.2°
Drops below altitude 10° 19:19:41 10° 301° (WNW) 1,736 10.2 -21.8°
Sets 19:22:20 0° 321° (NW) 2,619 10.8 -22.4°
